Weather History for KHFD - February, 2014

Change the Weather History Date:

Monday, February 3, 2014

  Actual Average Record
Temperature  
Mean Temperature 30 °F -  
Max Temperature 37 °F 38 °F 56 °F (1983)
Min Temperature 23 °F 18 °F -4 °F (1955)
Degree Days  
Heating Degree Days 35    
Moisture  
Dew Point 28 °F    
Average Humidity 85    
Maximum Humidity 93    
Minimum Humidity 62    
Precipitation  
Precipitation 0.19 in - - ()
Sea Level Pressure  
Sea Level Pressure 30.19 in    
Wind  
Wind Speed 7 mph (North)    
Max Wind Speed 14 mph    
Max Gust Speed -    
Visibility 3 miles    
Events Fog , Snow    
Averages and records for this station are not official NWS values.
T = Trace of Precipitation, MM = Missing Value Source: NWS Daily Summary

Daily Weather History Graph

Daily Weather History Graph

Search for Another Location

Airport or City:

Trip Planner

Search our weather history database for the weather conditions in past years. The results will help you decide how hot, cold, wet, or windy it might be!

Date:

Astronomy

Feb. 03, 2014 Rise Set
Actual Time 7:00 AM EST 5:08 PM EST
Civil Twilight 6:31 AM EST 5:37 PM EST
Nautical Twilight 5:58 AM EST 6:11 PM EST
Astronomical Twilight 5:25 AM EST 6:43 PM EST
Moon 8:57 AM EST (2/3) 10:00 PM EST (2/3)
Length of Visible Light 11h 06m
Length of Day
10h 07m
Waxing Crescent, 19% of the Moon is Illuminated
Feb 3
Waxing Crescent
Feb 6
First Quarter
Feb 14
Full
Feb 22
Last Quarter
Mar 1
New

Hourly Weather History & Observations

Time (EST) Temp. Windchill Dew Point Humidity Pressure Visibility Wind Dir Wind Speed Gust Speed Precip Events Conditions
12:53 AM 37.9 °F 33.5 °F 27.0 °F 65% 30.11 in 10.0 mi NNW 5.8 mph - N/A   Scattered Clouds
1:53 AM 37.9 °F 31.5 °F 27.0 °F 65% 30.11 in 10.0 mi NNW 9.2 mph - N/A   Mostly Cloudy
2:53 AM 37.9 °F 32.1 °F 27.0 °F 65% 30.13 in 10.0 mi NW 8.1 mph - N/A   Overcast
3:53 AM 37.0 °F 31.6 °F 27.0 °F 67% 30.12 in 10.0 mi NNW 6.9 mph - N/A   Overcast
4:53 AM 37.0 °F 32.4 °F 26.1 °F 65% 30.13 in 10.0 mi NNW 5.8 mph - N/A   Overcast
5:53 AM 37.0 °F 31.6 °F 25.0 °F 62% 30.15 in 10.0 mi North 6.9 mph - N/A   Overcast
6:53 AM 36.0 °F 31.1 °F 25.0 °F 64% 30.15 in 10.0 mi North 5.8 mph - N/A   Overcast
7:53 AM 36.0 °F 31.1 °F 25.0 °F 64% 30.16 in 10.0 mi North 5.8 mph - N/A   Overcast
8:45 AM 36.0 °F 30.3 °F 26.1 °F 67% 30.17 in 2.0 mi North 6.9 mph - 0.00 in Snow Light Snow
8:53 AM 36.0 °F 32.1 °F 27.0 °F 70% 30.17 in 1.5 mi North 4.6 mph - 0.00 in Snow Light Snow
9:06 AM 34.0 °F 28.8 °F 28.9 °F 82% 30.18 in 0.8 mi NNW 5.8 mph - 0.00 in Snow Light Snow
9:36 AM 33.1 °F 27.7 °F 30.9 °F 92% 30.19 in 0.5 mi NNW 5.8 mph - 0.02 in Fog , Snow Light Snow
9:53 AM 33.1 °F 30.0 °F 30.9 °F 92% 30.19 in 0.5 mi North 3.5 mph - 0.03 in Fog , Snow Light Snow
10:53 AM 33.1 °F 28.7 °F 30.9 °F 92% 30.19 in 0.5 mi North 4.6 mph - 0.04 in Fog , Snow Snow
11:06 AM 33.1 °F 28.7 °F 30.9 °F 92% 30.18 in 0.2 mi North 4.6 mph - 0.01 in Fog , Snow Snow
11:35 AM 33.1 °F 26.1 °F 30.9 °F 92% 30.16 in 0.5 mi North 8.1 mph - 0.03 in Fog , Snow Snow
11:53 AM 33.1 °F 24.9 °F 30.9 °F 92% 30.17 in 0.5 mi NNE 10.4 mph - 0.04 in Fog , Snow Light Snow
12:01 PM 33.1 °F 25.5 °F 30.0 °F 89% 30.16 in 1.0 mi NE 9.2 mph - 0.00 in Snow Light Snow
12:14 PM 33.1 °F 26.1 °F 30.0 °F 89% 30.16 in 0.8 mi NE 8.1 mph - 0.00 in Snow Light Snow
12:53 PM 32.0 °F 24.8 °F 28.9 °F 88% 30.14 in 0.5 mi NE 8.1 mph - 0.01 in Fog , Snow Snow
1:29 PM 32.0 °F 25.6 °F 30.0 °F 92% 30.14 in 0.2 mi NNE 6.9 mph - 0.03 in Fog , Snow Snow
1:40 PM 32.0 °F 23.0 °F 28.9 °F 88% 30.13 in 0.2 mi NNE 11.5 mph - 0.04 in Fog , Snow Snow
1:53 PM 30.9 °F 22.8 °F 28.9 °F 92% 30.14 in 0.2 mi North 9.2 mph - 0.04 in Fog , Snow Snow
2:13 PM 30.9 °F 22.8 °F 28.9 °F 92% 30.14 in 0.5 mi North 9.2 mph - 0.01 in Fog , Snow Snow
2:53 PM 30.9 °F 23.5 °F 28.9 °F 92% 30.15 in 0.5 mi North 8.1 mph - 0.02 in Fog , Snow Snow
3:16 PM 30.9 °F 22.2 °F 28.9 °F 92% 30.16 in 0.5 mi North 10.4 mph - 0.00 in Fog , Snow Snow
3:33 PM 30.9 °F 22.2 °F 28.0 °F 89% 30.16 in 0.5 mi North 10.4 mph - 0.01 in Fog , Snow Snow
3:53 PM 30.9 °F 20.7 °F 28.0 °F 89% 30.16 in 0.8 mi North 13.8 mph - 0.01 in Snow Light Snow
4:17 PM 30.9 °F 23.5 °F 28.9 °F 92% 30.17 in 1.0 mi North 8.1 mph - 0.00 in Snow Light Snow
4:31 PM 30.9 °F 22.2 °F 28.9 °F 92% 30.18 in 0.8 mi North 10.4 mph - 0.00 in Snow Light Snow
4:51 PM 30.2 °F 22.6 °F 28.4 °F 93% 30.18 in 0.8 mi North 8.1 mph - 0.00 in Snow Light Snow
4:53 PM 30.9 °F 21.7 °F 28.0 °F 89% 30.18 in 0.8 mi North 11.5 mph - 0.00 in Snow Light Snow
5:01 PM 30.9 °F 21.7 °F 28.0 °F 89% 30.18 in 1.0 mi North 11.5 mph - 0.00 in Snow Light Snow
5:09 PM 30.9 °F 23.5 °F 28.0 °F 89% 30.19 in 1.5 mi North 8.1 mph - 0.00 in Snow Light Snow
5:20 PM 30.9 °F 22.8 °F 28.0 °F 89% 30.19 in 2.0 mi North 9.2 mph - 0.00 in Snow Light Snow
5:26 PM 30.9 °F 21.7 °F 28.0 °F 89% 30.19 in 1.8 mi North 11.5 mph - 0.00 in Snow Light Snow
5:49 PM 30.2 °F 23.4 °F 28.4 °F 93% 30.19 in 2.5 mi North 6.9 mph - 0.00 in Snow Light Snow
5:53 PM 30.9 °F 23.5 °F 28.0 °F 89% 30.20 in 3.0 mi North 8.1 mph - 0.00 in Snow Light Snow
6:00 PM 30.9 °F 21.7 °F 28.0 °F 89% 30.20 in 2.5 mi North 11.5 mph - 0.00 in Snow Light Snow
6:16 PM 30.9 °F 23.5 °F 27.0 °F 85% 30.20 in 3.0 mi North 8.1 mph - 0.00 in Snow Light Snow
6:44 PM 30.9 °F 24.3 °F 28.0 °F 89% 30.22 in 4.0 mi NNW 6.9 mph - 0.00 in Snow Light Snow
6:53 PM 30.9 °F 23.5 °F 28.0 °F 89% 30.22 in 4.0 mi NNW 8.1 mph - 0.00 in Snow Light Snow
7:22 PM 30.9 °F 25.2 °F 28.0 °F 89% 30.23 in 7.0 mi North 5.8 mph - 0.00 in   Overcast
7:53 PM 30.9 °F 26.2 °F 28.0 °F 89% 30.24 in 8.0 mi North 4.6 mph - 0.00 in   Overcast
8:53 PM 30.0 °F 26.5 °F 26.1 °F 85% 30.26 in 9.0 mi North 3.5 mph - N/A   Scattered Clouds
9:53 PM 28.9 °F 25.2 °F 26.1 °F 89% 30.27 in 6.0 mi North 3.5 mph - N/A   Clear
10:53 PM 27.0 °F - 25.0 °F 92% 30.31 in 3.0 mi Calm Calm - N/A   Overcast
11:37 PM 25.0 °F - 21.9 °F 88% 30.30 in 1.5 mi Calm Calm - N/A   Clear
11:41 PM 23.0 °F - 21.0 °F 92% 30.30 in 0.5 mi Calm Calm - N/A Fog Light Freezing Fog
11:49 PM 24.8 °F - 19.4 °F 80% 30.30 in 0.2 mi Calm Calm - N/A Fog Light Freezing Fog
11:53 PM 24.1 °F - 21.0 °F 88% 30.30 in 0.2 mi Calm Calm - N/A Fog Light Freezing Fog